Weather History for Grants-Milan, NM

Change the Weather History Date:

Saturday, October 13, 2012

  Actual Average Record
Temperature  
Mean Temperature 46 °F -  
Max Temperature 62 °F 70 °F 82 °F (1998)
Min Temperature 30 °F 33 °F 19 °F (1997)
Degree Days  
Heating Degree Days 19    
Moisture  
Dew Point 31 °F    
Average Humidity 59    
Maximum Humidity 93    
Minimum Humidity 30    
Precipitation  
Precipitation 0.00 in - - ()
Sea Level Pressure  
Sea Level Pressure 30.22 in    
Wind  
Wind Speed 8 mph (NW)    
Max Wind Speed 20 mph    
Max Gust Speed 28 mph    
Visibility 10 miles    
Events      
Averages and records for this station are not official NWS values.
T = Trace of Precipitation, MM = Missing Value Source: NWS Daily Summary

Daily Weather History Graph

Daily Weather History Graph

Search for Another Location

Airport:

Trip Planner

Search our weather history database for the weather conditions in past years. The results will help you decide how hot, cold, wet, or windy it might be!

Date:

Astronomy

Oct. 13, 2012 Rise Set
Actual Time 7:16 AM MDT 6:38 PM MDT
Civil Twilight 6:50 AM MDT 7:03 PM MDT
Nautical Twilight 6:21 AM MDT 7:33 PM MDT
Astronomical Twilight 5:52 AM MDT 8:02 PM MDT
Moon 5:13 AM MDT (10/13) 5:21 PM MDT (10/13)
Length of Visible Light 12h 12m
Length of Day
11h 21m
Waning Crescent, 4% of the Moon is Illuminated
Oct 13
Waning Crescent
Oct 15
New
Oct 21
First Quarter
Oct 29
Full
Nov 6
Last Quarter

Hourly Weather History & Observations

Time (MDT) Temp. Windchill Dew Point Humidity Pressure Visibility Wind Dir Wind Speed Gust Speed Precip Events Conditions
12:15 AM 35.6 °F 30.7 °F 30.2 °F 81% 30.18 in 10.0 mi NNW 5.8 mph - N/A   Clear
12:55 AM 37.4 °F 31.4 °F 30.2 °F 75% 30.16 in 10.0 mi NNW 8.1 mph - N/A   Clear
1:15 AM 39.2 °F 33.6 °F 30.2 °F 70% 30.16 in 10.0 mi North 8.1 mph - N/A   Clear
1:35 AM 42.8 °F 37.0 °F 30.2 °F 61% 30.17 in 10.0 mi North 10.4 mph - N/A   Clear
1:55 AM 42.8 °F 38.6 °F 30.2 °F 61% 30.18 in 10.0 mi North 6.9 mph - N/A   Clear
2:35 AM 37.4 °F 31.4 °F 30.2 °F 75% 30.18 in 10.0 mi NNW 8.1 mph - N/A   Clear
2:55 AM 35.6 °F 31.7 °F 28.4 °F 75% 30.19 in 10.0 mi NNW 4.6 mph - N/A   Clear
3:15 AM 33.8 °F 29.6 °F 28.4 °F 81% 30.18 in 10.0 mi North 4.6 mph - N/A   Clear
3:35 AM 33.8 °F 28.6 °F 28.4 °F 81% 30.18 in 10.0 mi NW 5.8 mph - N/A   Clear
4:15 AM 32.0 °F 28.7 °F 28.4 °F 87% 30.18 in 10.0 mi North 3.5 mph - N/A   Clear
4:35 AM 32.0 °F 26.4 °F 28.4 °F 87% 30.20 in 10.0 mi NNW 5.8 mph - N/A   Clear
4:55 AM 33.8 °F 29.6 °F 30.2 °F 87% 30.19 in 10.0 mi West 4.6 mph - N/A   Clear
5:15 AM 32.0 °F 28.7 °F 28.4 °F 87% 30.19 in 10.0 mi NNW 3.5 mph - N/A   Clear
5:35 AM 32.0 °F 27.5 °F 28.4 °F 87% 30.20 in 10.0 mi NW 4.6 mph - N/A   Clear
5:55 AM 30.2 °F 25.4 °F 26.6 °F 86% 30.20 in 10.0 mi NW 4.6 mph - N/A   Clear
6:15 AM 32.0 °F 25.6 °F 28.4 °F 87% 30.20 in 10.0 mi NNW 6.9 mph - N/A   Clear
6:35 AM 32.0 °F 27.5 °F 28.4 °F 87% 30.20 in 10.0 mi NW 4.6 mph - N/A   Clear
6:55 AM 30.2 °F 23.4 °F 28.4 °F 93% 30.20 in 10.0 mi NNW 6.9 mph - N/A   Clear
7:15 AM 30.2 °F 23.4 °F 28.4 °F 93% 30.21 in 10.0 mi NNW 6.9 mph - N/A   Clear
7:55 AM 33.8 °F 28.6 °F 30.2 °F 87% 30.22 in 10.0 mi NW 5.8 mph - N/A   Mostly Cloudy
8:15 AM 37.4 °F 32.8 °F 32.0 °F 81% 30.22 in 10.0 mi WNW 5.8 mph - N/A   Overcast
8:35 AM 41.0 °F 36.4 °F 32.0 °F 70% 30.23 in 10.0 mi North 6.9 mph - N/A   Overcast
8:55 AM 41.0 °F 39.0 °F 32.0 °F 70% 30.24 in 10.0 mi NW 3.5 mph - N/A   Mostly Cloudy
9:15 AM 42.8 °F 41.1 °F 33.8 °F 70% 30.24 in 10.0 mi NW 3.5 mph - N/A   Scattered Clouds
9:35 AM 44.6 °F 41.4 °F 33.8 °F 66% 30.25 in 10.0 mi North 5.8 mph - N/A   Scattered Clouds
9:55 AM 46.4 °F 42.9 °F 33.8 °F 62% 30.25 in 10.0 mi NNW 6.9 mph - N/A   Scattered Clouds
10:15 AM 48.2 °F - 32.0 °F 54% 30.24 in 10.0 mi WNW 3.5 mph - N/A   Clear
10:35 AM 50.0 °F - 32.0 °F 50% 30.24 in 10.0 mi NW 3.5 mph - N/A   Clear
10:55 AM 51.8 °F - 32.0 °F 47% 30.22 in 10.0 mi Calm Calm - N/A   Clear
11:15 AM 53.6 °F - 32.0 °F 44% 30.21 in 10.0 mi West 3.5 mph - N/A   Clear
11:35 AM 57.2 °F - 30.2 °F 36% 30.20 in 10.0 mi NNW 15.0 mph 21.9 mph N/A   Clear
11:55 AM 55.4 °F - 30.2 °F 38% 30.20 in 10.0 mi NW 12.7 mph 18.4 mph N/A   Clear
12:15 PM 59.0 °F - 30.2 °F 34% 30.20 in 10.0 mi NW 9.2 mph 16.1 mph N/A   Clear
12:55 PM 60.8 °F - 30.2 °F 31% 30.20 in 10.0 mi NNW 12.7 mph 23.0 mph N/A   Clear
1:35 PM 60.8 °F - 32.0 °F 34% 30.20 in 10.0 mi NW 19.6 mph 24.2 mph N/A   Clear
1:55 PM 60.8 °F - 30.2 °F 31% 30.19 in 10.0 mi North 17.3 mph 25.3 mph N/A   Clear
2:15 PM 62.6 °F - 30.2 °F 30% 30.20 in 10.0 mi NNW 17.3 mph 25.3 mph N/A   Clear
2:35 PM 62.6 °F - 30.2 °F 30% 30.20 in 10.0 mi NNW 19.6 mph 27.6 mph N/A   Clear
2:55 PM 62.6 °F - 30.2 °F 30% 30.20 in 10.0 mi NNW 16.1 mph 26.5 mph N/A   Clear
3:15 PM 62.6 °F - 32.0 °F 32% 30.20 in 10.0 mi NW 18.4 mph 23.0 mph N/A   Clear
3:55 PM 62.6 °F - 32.0 °F 32% 30.20 in 10.0 mi NW 17.3 mph 21.9 mph N/A   Clear
4:15 PM 62.6 °F - 32.0 °F 32% 30.19 in 10.0 mi NW 15.0 mph 24.2 mph N/A   Clear
4:35 PM 62.6 °F - 32.0 °F 32% 30.19 in 10.0 mi WNW 18.4 mph - N/A   Clear
4:55 PM 62.6 °F - 32.0 °F 32% 30.19 in 10.0 mi WNW 13.8 mph 23.0 mph N/A   Clear
5:15 PM 62.6 °F - 32.0 °F 32% 30.20 in 10.0 mi NW 18.4 mph 24.2 mph N/A   Clear
5:35 PM 62.6 °F - 32.0 °F 32% 30.20 in 10.0 mi NW 15.0 mph - N/A   Clear
6:15 PM 60.8 °F - 32.0 °F 34% 30.21 in 10.0 mi WNW 15.0 mph 19.6 mph N/A   Clear
6:55 PM 55.4 °F - 32.0 °F 41% 30.23 in 10.0 mi WNW 8.1 mph - N/A   Clear
7:15 PM 51.8 °F - 32.0 °F 47% 30.24 in 10.0 mi WNW 6.9 mph - N/A   Clear
7:35 PM 51.8 °F - 32.0 °F 47% 30.26 in 10.0 mi NW 4.6 mph - N/A   Clear
8:15 PM 48.2 °F - 32.0 °F 54% 30.28 in 10.0 mi NW 3.5 mph - N/A   Clear
8:35 PM 46.4 °F 44.3 °F 32.0 °F 57% 30.28 in 10.0 mi North 4.6 mph - N/A   Clear
8:55 PM 42.8 °F 40.1 °F 30.2 °F 61% 30.28 in 10.0 mi NW 4.6 mph - N/A   Clear
9:15 PM 44.6 °F 41.4 °F 32.0 °F 61% 30.29 in 10.0 mi WNW 5.8 mph - N/A   Clear
9:55 PM 42.8 °F 37.0 °F 32.0 °F 66% 30.29 in 10.0 mi NW 10.4 mph - N/A   Clear
10:15 PM 42.8 °F 40.1 °F 32.0 °F 66% 30.30 in 10.0 mi NW 4.6 mph - N/A   Clear
10:35 PM 44.6 °F 40.2 °F 32.0 °F 61% 30.30 in 10.0 mi NW 8.1 mph - N/A   Clear
11:15 PM 44.6 °F 43.1 °F 32.0 °F 61% 30.32 in 10.0 mi North 3.5 mph - N/A   Clear
11:35 PM 41.0 °F 37.1 °F 32.0 °F 70% 30.31 in 10.0 mi NNW 5.8 mph - N/A   Clear
11:55 PM 37.4 °F - 32.0 °F 81% 30.32 in 10.0 mi Calm Calm - N/A   Clear